#timestamp,LO_Frequency,Hit 
1499598015.9,286046995.9,N
1499598035.7,286046996.2,N
1499598055.5,286046993.5,N
1499598075.4,286046993.4,N
1499598095.2,286046993.4,N
1499598115.1,286046994.2,N
1499598116.0,286046994.2,N
1499598135.8,286046993.6,N
1499598155.6,286046993.6,N
1499598175.5,286046993.5,N
1499598195.3,286046993.4,N
1499598215.1,286046993.4,N
1499598235.9,286046993.7,N
1499598255.7,286046995.9,N
1499598275.6,286046996.4,N
1499598295.4,286046995.5,N
1499598315.2,286046996.4,N
1499598335.1,286046993.7,N
1499598336.0,286046993.7,N
1499598355.8,286046996.0,N
1499598375.6,286046996.4,N
1499598395.5,286046993.5,N
1499598415.3,286046994.0,N
1499598435.2,286046996.3,N
1499598455.9,286046996.0,N
1499598475.7,286046993.6,N
1499598495.6,286046996.4,N
1499598515.4,286046993.7,N
1499598535.2,286046994.2,N
1499598555.1,286046991.8,N
1499598556.0,286046991.8,N
1499598575.8,286046991.8,N
1499598595.7,286046994.6,N
1499598615.5,286046993.9,N
1499598635.3,286046994.3,N
1499598655.2,286046994.5,N
1499598675.9,286046994.3,N
1499598695.7,286046994.1,N
1499598715.6,286046993.6,N
1499598735.4,286046994.3,N
1499598755.3,286046992.1,N
1499598775.1,286046992.3,N
1499598776.0,286046992.3,N
1499598795.8,286046994.4,N
1499598815.7,286046994.2,N
1499598835.5,286046992.4,N
1499598855.3,286046992.2,N
1499598875.2,286046991.9,N
1499598895.0,286046992.9,N
1499598895.9,286046992.9,N
1499598915.8,286046992.4,N
1499598935.6,286046992.2,N
1499598955.4,286046992.1,N
1499598975.3,286046992.2,N
1499598995.1,286046991.8,N
1499599015.9,286046992.3,N
1499599035.7,286046991.7,N
1499599055.5,286046991.8,N
1499599075.4,286046992.0,N
1499599095.2,286046991.9,N
1499599115.1,286046992.3,N
1499599116.0,286046992.3,N
1499599135.8,286046994.0,N
1499599155.6,286046993.8,N
1499599175.5,286046991.7,N
1499599195.3,286046992.1,N
1499599215.1,286046992.6,N
1499599235.9,286046991.8,N
1499599255.7,286046994.3,N
1499599275.6,286046994.5,N
1499599295.4,286046994.3,N
1499599315.2,286046994.3,N
1499599335.1,286046994.8,N
1499599336.0,286046994.8,N
1499599355.8,286046994.7,N
1499599375.7,286046994.5,N
1499599395.5,286046991.7,N
1499599415.3,286046992.0,N
1499599435.2,286046994.6,N
1499599455.0,286046994.5,N
1499599455.9,286046994.5,N
1499599475.7,286046993.9,N
1499599495.6,286046994.2,N
1499599515.4,286046994.3,N
1499599535.3,286046991.7,N
1499599555.1,286046994.8,N
1499599556.0,286046994.8,N
1499599575.8,286046991.7,N
1499599595.7,286046991.8,N
1499599615.5,286046991.7,N
1499599635.3,286046994.4,N
1499599655.2,286046993.8,N
1499599675.0,286046993.8,N
1499599675.9,286046993.8,N
1499599695.8,286046994.1,N
1499599715.6,286046992.0,N
1499599735.4,286046992.3,N
1499599755.3,286046994.1,N
1499599775.1,286046991.9,N
1499599795.8,286046994.8,N
1499599815.7,286046994.6,N
1499599835.5,286046992.0,N
1499599855.4,286046994.6,N
1499599875.2,286046994.0,N
1499599895.0,286046992.0,N
1499599895.9,286046992.0,N
1499599915.8,286046994.8,N
1499599935.6,286046994.8,N
1499599955.5,286046991.7,N
1499599975.3,286046994.2,N
1499599995.1,286046994.7,N
1499600015.9,286046994.4,N
1499600035.7,286046992.2,N
1499600055.5,286046991.8,N
1499600075.4,286046992.0,N
1499600095.2,286046994.3,N
1499600115.1,286046993.9,N
1499600116.0,286046993.9,N
1499600135.8,286046993.6,N
1499600155.6,286046995.8,N
1499600175.5,286046995.6,N
1499600195.3,286046993.3,N
1499600215.1,286046993.3,N
1499600235.9,286046995.7,N
1499600255.7,286046992.3,N
1499600275.6,286046992.3,N
1499600295.4,286046992.7,N
1499600315.2,286046991.9,N
1499600335.1,286046991.1,N
1499600336.0,286046991.1,N
1499600355.8,286046990.3,N
1499600375.6,286046991.4,N
1499600395.5,286046991.0,N
1499600415.3,286046991.0,N
1499600435.2,286046990.4,N
1499600455.0,286046990.1,N
1499600455.9,286046990.1,N
1499600475.7,286046992.2,N
1499600495.6,286046992.2,N
1499600515.4,286046994.6,N
1499600535.3,286046990.8,N
1499600555.1,286046989.8,N
1499600556.0,286046989.8,Y
1499600575.8,286046991.6,N
1499600595.7,286046987.4,Y
1499600615.5,286046990.7,N
1499600635.4,286046991.6,N
1499600655.2,286046987.9,Y
1499600675.0,286046992.8,N
1499600675.9,286046992.8,N
1499600695.8,286046988.9,Y
1499600715.6,286046994.7,N
1499600735.5,286046992.1,N
1499600755.3,286046993.5,N
1499600775.1,286046996.0,N
1499600795.9,286046995.4,N
1499600815.7,286046995.9,N
1499600835.5,286046995.1,N
1499600855.4,286046997.3,N
1499600875.2,286046998.9,N
1499600895.1,286047002.5,N
1499600896.0,286047002.5,N
1499600915.8,286047001.3,N
1499600935.6,286047002.3,N
1499600955.5,286047003.2,N
1499600975.3,286047003.3,N
1499600995.1,286047003.9,N
1499601015.9,286047002.2,N
1499601035.7,286047001.7,N
1499601055.6,286047003.7,N
1499601075.4,286047000.3,N
1499601125.3,286047002.6,Y
1499601135.2,286047000.1,N
1499601155.0,286046998.8,N
1499601155.9,286046998.8,N
1499601175.7,286047001.0,N
1499601195.6,286047002.0,N
1499601215.4,286047002.0,N
1499601235.3,286047001.4,N
1499601255.1,286047004.4,N
1499601256.0,286047004.4,N
1499601275.8,286047003.4,N
1499601295.7,286047002.9,N
1499601315.5,286047005.6,N
1499601335.4,286047007.1,N
1499601355.2,286047007.1,N
1499601375.0,286047007.5,N
1499601375.9,286047007.5,N
1499601395.8,286047006.7,N
1499601415.6,286047006.1,N
1499601435.4,286047008.4,N
1499601455.3,286047009.1,N
1499601475.1,286047004.7,N
1499601495.9,286047005.3,N
1499601515.7,286047002.9,N
1499601535.5,286047003.3,N
1499601555.4,286047005.1,N
1499601575.2,286047007.1,N
1499601595.1,286047007.1,N
1499601596.0,286047007.1,N
